Waarnemingen

Advertentie
Mijn weer
Herstmonceux, Groot Brittannië (3882): temperatuur & dauwpunt: 21.01.2021 12:00:00 - 27.01.2021 12:00:00 (GMT)Herstmonceux, Groot Brittannië (3882): temperatuur -20cm & temperatuur -100cm: 21.01.2021 12:00:00 - 27.01.2021 12:00:00 (GMT)Herstmonceux, Groot Brittannië (3882): windsnelheid & windstoten: 21.01.2021 12:00:00 - 27.01.2021 12:00:00 (GMT)Herstmonceux, Groot Brittannië (3882): windrichting: 21.01.2021 12:00:00 - 27.01.2021 12:00:00 (GMT)Herstmonceux, Groot Brittannië (3882): luchtdruk: 21.01.2021 12:00:00 - 27.01.2021 12:00:00 (GMT)Herstmonceux, Groot Brittannië (3882): zicht: 21.01.2021 12:00:00 - 27.01.2021 12:00:00 (GMT)Herstmonceux, Groot Brittannië (3882): Zonneschijnduur: 21.01.2021 12:00:00 - 27.01.2021 12:00:00 (GMT)Herstmonceux, Groot Brittannië (3882): neerslag: 21.01.2021 12:00:00 - 27.01.2021 12:00:00 (GMT)
Datum & Tijd tt [°C] td [°C] tt -20cm [°C] tt -100cm [°C] ff [km/u] ff [kn] fx [km/u] fx [kn] dd ppp [hPa] vv [km] sd [min] rr [mm]
27.01.2021 12:00:00 8,2 8,2 - - 5 3 - - WZW 1013,1 4,2 0 0,0
27.01.2021 11:00:00 7,7 7,7 - - 5 3 - - W 1013,3 4,7 0 0,0
27.01.2021 10:00:00 7,5 7,5 - - 5 3 - - WNW 1012,8 5 0 0,0
27.01.2021 09:00:00 7,3 7,3 4,9 6,7 9 5 - - W 1012,1 1,9 0 0,0
27.01.2021 08:00:00 7,6 7,6 - - 5 3 - - W 1011,4 2,6 0 0,0
27.01.2021 07:00:00 7,8 7,8 - - 8 4 - - W 1011,1 4,1 0 0,0
27.01.2021 06:00:00 7,8 7,8 - - 8 4 - - NW 1010,8 4,1 0 0,0
27.01.2021 05:00:00 7,7 7,7 - - 9 5 - - WNW 1010,5 5 0 0,0
27.01.2021 04:00:00 7,6 7,6 - - 5 3 - - W 1010,3 0,9 0 0,0
27.01.2021 03:00:00 7,5 7,5 - - 5 3 - - W 1010,4 0,5 0 0,0
27.01.2021 02:00:00 7,2 7,2 - - 5 3 - - WZW 1010,7 1,6 0 0,2
27.01.2021 01:00:00 6,7 6,7 - - 11 6 - - ZW 1011,1 2,2 0 0,0
27.01.2021 00:00:00 6,4 6,4 - - 11 6 - - ZW 1011,7 2,3 - 0,2
26.01.2021 23:00:00 5,9 5,9 - - 16 9 - - ZW 1012,1 2,3 0 0,2
26.01.2021 22:00:00 5,0 5,0 - - 13 7 - - ZW 1012,7 1,8 0 0,2
26.01.2021 21:00:00 4,6 4,6 - - 16 9 - - ZZW 1013,1 2,4 0 0,6
26.01.2021 20:00:00 4,6 4,6 - - 16 9 - - ZZW 1014,1 1,9 0 1,4
26.01.2021 19:00:00 4,7 4,6 - - 16 9 - - ZW 1014,6 2,7 0 1,0
26.01.2021 18:00:00 4,7 4,3 - - 15 8 - - ZZW 1015,1 3,4 0 0,6
26.01.2021 17:00:00 5,1 3,8 - - 18 10 - - ZW 1015,5 3,8 0 0,0
26.01.2021 16:00:00 5,6 3,2 - - 18 10 - - ZW 1016,0 35 0 0,0
26.01.2021 15:00:00 6,0 3,4 - - 18 10 - - ZW 1016,4 27 0 0,0
26.01.2021 14:00:00 6,1 2,7 - - 16 9 - - ZW 1017,5 27 0 0,0
26.01.2021 13:00:00 6,1 3,3 - - 15 8 - - WZW 1017,5 20 0 0,0
26.01.2021 12:00:00 4,3 3,3 - - 2 1 - - ZW 1018,2 27 0 0,0
26.01.2021 11:00:00 2,7 0,8 - - 5 3 - - ZW 1018,9 19 0 0,0
26.01.2021 10:00:00 0,9 -0,2 - - 4 2 - - O 1018,9 25 0 0,0
26.01.2021 09:00:00 0,2 -0,8 4,5 7,0 4 2 - - ONO 1019,0 25 0 0,0
26.01.2021 08:00:00 -0,3 -1,2 - - 4 2 - - NO 1018,8 21 0 0,0
26.01.2021 07:00:00 -0,9 -1,8 - - 4 2 - - NO 1018,6 17 0 0,0
26.01.2021 06:00:00 -0,1 -1,2 - - 4 2 - - W 1018,4 40 0 0,0
26.01.2021 05:00:00 0,4 -0,8 - - 8 4 - - NW 1018,3 40 0 0,0
26.01.2021 04:00:00 -0,2 -1,4 - - 4 2 - - NW 1018,4 40 0 0,0
26.01.2021 03:00:00 -0,5 -1,9 - - 8 4 - - W 1018,6 30 0 0,0
26.01.2021 02:00:00 0,5 -1,7 - - 8 4 - - WNW 1018,2 40 0 0,0
26.01.2021 01:00:00 0,4 -2,1 - - 8 4 - - WNW 1017,8 45 0 0,0
26.01.2021 00:00:00 0,2 -2,3 - - 8 4 - - WNW 1017,5 50 - 0,0
25.01.2021 23:00:00 0,6 -2,3 - - 9 5 - - WNW 1017,1 50 0 0,0
25.01.2021 22:00:00 1,0 -2,1 - - 9 5 - - WNW 1016,6 40 0 0,0
25.01.2021 21:00:00 0,7 -1,8 - - 8 4 - - W 1016,2 40 0 0,0
25.01.2021 20:00:00 0,4 -1,9 - - 8 4 - - W 1015,7 30 0 0,0
25.01.2021 19:00:00 1,3 -1,5 - - 9 5 - - W 1014,9 40 0 0,0
25.01.2021 18:00:00 1,2 -1,4 - - 5 3 - - W 1014,1 25 0 0,0
25.01.2021 17:00:00 2,4 -1,4 - - 5 3 - - W 1013,6 35 0 0,0
25.01.2021 16:00:00 4,5 -0,9 - - 11 6 - - WNW 1012,7 35 54 0,0
25.01.2021 15:00:00 5,5 -0,4 - - 13 7 - - NW 1011,7 40 60 0,0
25.01.2021 14:00:00 5,1 -0,9 - - 13 7 - - NW 1011,2 30 60 0,0
25.01.2021 13:00:00 4,7 -0,5 - - 8 4 - - W 1010,6 30 60 0,0
25.01.2021 12:00:00 3,5 -1,2 - - 11 6 - - WNW 1010,5 23 60 0,0
25.01.2021 11:00:00 2,2 -1,5 - - 9 5 - - WNW 1010,2 30 24 0,0
25.01.2021 10:00:00 0,2 -2,8 - - 11 6 - - NW 1009,4 21 0 0,0
25.01.2021 09:00:00 -1,0 -3,0 4,9 7,2 8 4 - - NW 1008,3 23 0 0,0
25.01.2021 08:00:00 -1,4 -2,7 - - 8 4 - - NW 1007,3 17 0 0,0
25.01.2021 07:00:00 -0,6 -2,6 - - 9 5 - - NW 1006,1 30 0 0,0
25.01.2021 06:00:00 0,0 -1,8 - - 11 6 - - N 1005,0 25 0 0,0
25.01.2021 05:00:00 0,4 -1,4 - - 15 8 - - N 1003,9 24 0 0,0
25.01.2021 04:00:00 0,6 -1,0 - - 13 7 - - N 1002,9 30 0 0,0
25.01.2021 03:00:00 0,8 -0,7 - - 9 5 - - NW 1001,8 26 0 0,0
25.01.2021 02:00:00 1,3 -0,1 - - 11 6 - - N 1000,6 25 0 0,0
25.01.2021 01:00:00 1,5 0,1 - - 13 7 - - N 999,5 22 0 0,0
25.01.2021 00:00:00 1,5 0,3 - - 9 5 - - NNW 998,3 17 - 0,0
24.01.2021 23:00:00 1,1 -0,5 - - 9 5 - - NNW 997,2 30 0 0,0
24.01.2021 22:00:00 1,1 -1,0 - - 9 5 - - NW 996,4 50 0 0,0
24.01.2021 21:00:00 1,0 -0,9 - - 9 5 - - NNW 995,8 45 0 0,0
24.01.2021 20:00:00 1,2 -1,3 - - 13 7 - - NNW 995,3 45 0 0,0
24.01.2021 19:00:00 0,8 -0,4 - - 5 3 - - NW 995,0 45 0 0,0
24.01.2021 18:00:00 1,1 -0,2 - - 8 4 - - NW 994,6 45 0 0,0
24.01.2021 17:00:00 1,5 -0,3 - - 11 6 - - NW 994,5 50 0 0,0
24.01.2021 16:00:00 2,5 -0,2 - - 15 8 - - NW 994,3 50 18 0,0
24.01.2021 15:00:00 3,5 1,4 - - 13 7 - - WNW 993,8 50 24 0,0
24.01.2021 14:00:00 5,4 3,4 - - 9 5 - - W 993,4 26 36 0,0
24.01.2021 13:00:00 3,5 3,2 - - 5 3 - - Z 993,8 15 0 1,2
24.01.2021 12:00:00 2,4 1,6 - - 15 8 - - ZZO 995,2 4,1 0 0,6
24.01.2021 11:00:00 3,5 1,4 - - 21 11 - - ZZW 996,1 45 0 0,2
24.01.2021 10:00:00 4,0 1,0 - - 16 9 - - Z 996,6 35 0 0,0
24.01.2021 09:00:00 -1,0 -1,5 5,2 7,4 5 3 - - O 997,5 30 0 0,0
24.01.2021 08:00:00 -2,3 -2,7 - - 9 5 - - O 998,3 21 0 0,0
24.01.2021 07:00:00 -3,0 -3,3 - - 5 3 - - ONO 999,1 15 0 0,0
24.01.2021 06:00:00 -3,3 -3,7 - - 4 2 - - ONO 999,7 11 0 0,0
24.01.2021 05:00:00 -3,1 -4,0 - - 5 3 - - O 999,8 14 0 0,0
24.01.2021 04:00:00 -2,0 -3,2 - - 4 2 - - N 999,9 30 0 0,0
24.01.2021 03:00:00 -2,1 -3,2 - - 5 3 - - W 1000,1 30 0 0,0
24.01.2021 02:00:00 -1,1 -2,4 - - 8 4 - - NW 1000,1 30 0 0,0
24.01.2021 01:00:00 -1,4 -2,9 - - 5 3 - - W 999,6 25 0 0,0
24.01.2021 00:00:00 -0,7 -2,4 - - 5 3 - - WNW 999,3 27 - 0,0
23.01.2021 23:00:00 -0,9 -2,3 - - 8 4 - - WNW 999,0 20 0 0,0
23.01.2021 22:00:00 -1,2 -2,1 - - 8 4 - - WNW 998,6 22 0 0,0
23.01.2021 21:00:00 -0,9 -1,9 - - 5 3 - - W 998,1 18 0 0,0
23.01.2021 20:00:00 -1,2 -2,0 - - 5 3 - - W 997,7 18 0 0,0
23.01.2021 19:00:00 -0,1 -2,1 - - 4 2 - - WZW 997,3 20 0 0,0
23.01.2021 18:00:00 1,6 -1,4 - - 8 4 - - NW 996,6 40 0 0,0
23.01.2021 17:00:00 2,3 -0,7 - - 8 4 - - NW 996,1 45 6 0,0
23.01.2021 16:00:00 3,7 -0,4 - - 11 6 - - NW 995,6 35 60 0,0
23.01.2021 15:00:00 4,4 0,3 - - 13 7 - - NNW 995,1 24 42 0,0
23.01.2021 14:00:00 4,1 0,6 - - 8 4 - - N 994,6 30 12 0,0
23.01.2021 13:00:00 3,6 0,8 - - 8 4 - - NNW 994,6 21 0 0,0
23.01.2021 12:00:00 2,5 1,4 - - 5 3 - - NNW 994,7 16 0 0,0
23.01.2021 11:00:00 1,0 0,9 - - 4 2 - - N 994,6 17 0 0,0
23.01.2021 10:00:00 -0,2 -0,3 - - 0 0 - - N 994,3 13 0 0,0
23.01.2021 09:00:00 -0,6 -0,7 5,9 7,4 2 1 - - ONO 994,2 11 0 0,0
23.01.2021 08:00:00 -0,7 -0,8 - - 4 2 - - ZO 994,0 13 0 0,0
23.01.2021 07:00:00 -0,7 -0,9 - - 8 4 - - NNO 993,9 15 0 0,0
23.01.2021 06:00:00 -0,3 -0,6 - - 4 2 - - N 994,2 11 0 0,0
23.01.2021 05:00:00 -0,2 -0,7 - - 0 0 - - N 994,4 16 0 0,0
23.01.2021 04:00:00 0,5 -0,8 - - 5 3 - - WZW 994,8 35 0 0,0
23.01.2021 03:00:00 1,8 0,3 - - 9 5 - - W 995,0 40 0 0,0
23.01.2021 02:00:00 2,3 0,6 - - 5 3 - - W 994,8 50 0 0,0
23.01.2021 01:00:00 3,8 1,3 - - 11 6 - - W 994,8 50 0 0,0
23.01.2021 00:00:00 3,5 1,4 - - 13 7 - - W 994,9 50 - 0,0
22.01.2021 23:00:00 3,0 1,6 - - 8 4 - - W 994,6 30 0 0,0
22.01.2021 22:00:00 2,8 1,8 - - 9 5 - - W 994,1 45 0 0,0
22.01.2021 21:00:00 2,7 1,3 - - 2 1 - - W 994,3 40 0 0,0
22.01.2021 20:00:00 4,2 2,5 - - 11 6 - - WZW 994,4 40 0 0,4
22.01.2021 19:00:00 4,2 2,9 - - 2 1 - - WZW 994,4 40 0 0,0
22.01.2021 18:00:00 4,0 2,3 - - 8 4 - - ZZW 994,7 50 0 0,0
22.01.2021 17:00:00 4,4 2,4 - - 5 3 - - ZW 994,7 35 0 0,0
22.01.2021 16:00:00 5,2 1,5 - - 8 4 - - ZW 994,7 45 24 0,0
22.01.2021 15:00:00 6,8 1,4 - - 9 5 - - WZW 994,5 27 54 0,0
22.01.2021 14:00:00 7,5 1,9 - - 9 5 - - W 994,3 30 60 0,0
22.01.2021 13:00:00 6,9 2,6 - - 8 4 - - WZW 994,7 29 60 0,0
22.01.2021 12:00:00 6,0 3,3 - - 5 3 - - WZW 994,8 30 60 0,2
22.01.2021 11:00:00 3,1 2,5 - - 4 2 - - WNW 994,6 35 18 0,0
22.01.2021 10:00:00 0,6 0,5 - - 2 1 - - NW 994,2 16 0 0,0
22.01.2021 09:00:00 0,5 0,4 6,7 7,4 4 2 - - WNW 993,4 20 0 0,0
22.01.2021 08:00:00 -0,4 -0,6 - - 4 2 - - NW 992,5 12 0 0,0
22.01.2021 07:00:00 -0,7 -1,2 - - 0 0 - - N 991,8 10 0 0,0
22.01.2021 06:00:00 1,0 0,5 - - 5 3 - - WNW 991,0 25 0 0,0
22.01.2021 05:00:00 1,3 0,9 - - 5 3 - - NW 990,6 30 0 0,0
22.01.2021 04:00:00 1,3 0,9 - - 5 3 - - W 990,4 18 0 0,0
22.01.2021 03:00:00 1,8 1,3 - - 8 4 - - W 989,8 25 0 0,0
22.01.2021 02:00:00 1,3 0,7 - - 8 4 - - W 989,4 25 0 0,0
22.01.2021 01:00:00 2,2 1,2 - - 5 3 - - W 988,5 30 0 0,0
22.01.2021 00:00:00 3,2 1,7 - - 8 4 - - W 988,1 45 - 0,0
21.01.2021 23:00:00 4,2 2,6 - - 11 6 - - W 987,3 40 0 0,0
21.01.2021 22:00:00 3,6 3,1 - - 5 3 - - WZW 986,2 23 0 0,0
21.01.2021 21:00:00 3,7 2,9 - - 4 2 - - WZW 985,8 19 0 0,2
21.01.2021 20:00:00 4,3 3,0 - - 5 3 - - W 985,0 18 0 0,2
21.01.2021 19:00:00 4,1 3,2 - - 5 3 - - Z 984,1 26 0 0,2
21.01.2021 18:00:00 4,5 3,0 - - 4 2 - - W 984,7 14 0 0,2
21.01.2021 17:00:00 5,1 3,6 - - 9 5 - - ZZW 985,5 40 0 0,0
21.01.2021 16:00:00 5,2 3,8 - - 5 3 - - ZO 986,2 30 0 0,2
21.01.2021 15:00:00 5,8 3,0 - - 16 9 - - ZW 987,0 30 0 0,2
21.01.2021 14:00:00 6,4 3,9 - - 28 15 54 29 WZW 987,9 21 0 1,0
21.01.2021 13:00:00 8,2 4,6 - - 21 11 - - WZW 988,6 23 12 0,0
21.01.2021 12:00:00 7,7 2,6 - - 21 11 - - WZW 989,1 28 24 0,0

tt = temperatuur
td = dauwpunt
tt -20cm = temperatuur -20cm
tt -100cm = temperatuur -100cm
ff = windsnelheid
fx = windstoten
dd = windrichting
ppp = luchtdruk
vv = zicht
sd = Zonneschijnduur
rr = neerslag

Weerstations in de omgeving